Satellite-Ground Cal/Val Site Overpasses Predictions

Prediction of Satellite NPP Overpassing Cal/Val Site: Antarctic Dome C

Ground Cal/Val Site Location: Latitude: -75.10, Longitude: 123.35; Satellite-Ground Site NADIR distance within 100 km.

Table of predicted overpasses for the next 14.0 days since TLE Epoch: 4/26/2016
Interval Starting Time Ending Time Minimum Distance Time Minimum Distance (km)
1 04/26/2016 15:08:38 04/26/2016 15:08:47 04/26/2016 15:08:42 94.16
2 04/27/2016 14:49:38 04/27/2016 14:50:06 04/27/2016 14:49:52 16.98
3 04/29/2016 07:32:28 04/29/2016 07:32:57 04/29/2016 07:32:43 1.91
4 05/02/2016 14:55:55 05/02/2016 14:56:24 05/02/2016 14:56:10 19.77
5 05/03/2016 14:37:14 05/03/2016 14:37:28 05/03/2016 14:37:21 87.27
6 05/04/2016 07:38:46 05/04/2016 07:39:13 05/04/2016 07:38:59 36.56
7 05/05/2016 07:20:00 05/05/2016 07:20:20 05/05/2016 07:20:10 73.44
8 05/07/2016 15:02:15 05/07/2016 15:02:39 05/07/2016 15:02:27 56.89
9 05/08/2016 14:43:25 05/08/2016 14:43:49 05/08/2016 14:43:37 52.18
10 05/09/2016 07:45:06 05/09/2016 07:45:26 05/09/2016 07:45:16 71.97


NCC Satellite Cal/Val Overpasses Prediction Service
